[[[{"header":{"parameterUnit":"kt","parameterCategory":2,"dx":1,"dy":1,"la1":30.253999710083008,"la2":30.299108505249023,"lo1":-89.0895004272461,"lo2":-89.04439544677734,"nx":28,"ny":28,"refTime":"2022-10-20T21:00:00:Z","depth":0,"parameterNumber":1,"parameterNumberName":"U-component_of_WINDS"},"data":[4.2427,4.2525,4.2534,4.265,4.2678,4.2758,4.279,4.2831,4.2867,4.2963,4.3021,4.304,4.3078,4.3148,4.321,4.3217,4.3241,4.3269,4.3272,4.314,4.3122,4.3105,4.308,4.3275,4.3276,4.3405,4.3406,4.3407,4.2329,4.2357,4.2422,4.249,4.2545,4.2524,4.2577,4.2624,4.2696,4.2741,4.2798,4.2884,4.2953,4.2982,4.3049,4.3095,4.3087,4.3112,4.3106,4.3112,4.2972,4.2947,4.3117,4.3117,4.3117,4.3116,4.3116,4.3116,4.2151,4.221,4.2256,4.2326,4.2364,4.241,4.2467,4.2489,4.2552,4.2623,4.2622,4.2704,4.275,4.2836,4.2867,4.293,4.2904,4.2933,4.294,4.2946,4.295,4.2756,4.2943,4.2943,4.2942,4.2942,4.2942,0,4.2023,4.2026,4.2089,4.2154,4.2206,4.2257,4.2306,4.2342,4.2351,4.2403,4.2478,4.2523,4.2611,4.2682,4.2748,4.2773,4.2753,4.2754,4.2773,4.2771,4.2762,4.2764,4.2532,4.2747,4.2745,4.2744,4.2743,4.2743,4.184,4.1909,4.1962,4.2005,4.2033,4.2103,4.2145,4.2149,4.2194,4.2254,4.2306,4.2378,4.2435,4.2554,4.2577,4.2643,4.2633,4.2714,4.2643,4.264,4.2629,4.2623,4.2629,4.2726,4.2728,4.273,4.2731,0,4.1736,4.175,4.1859,4.1905,4.1918,4.199,4.2028,4.2088,4.2102,4.2185,4.2205,4.2227,4.2301,4.2311,4.2398,4.2401,4.2517,4.2508,4.25,4.2497,4.2567,4.2559,4.2801,4.2831,4.2634,4.2635,4.2637,0,4.1583,4.1674,4.1689,4.1751,4.1852,4.1852,4.1951,4.1973,4.2013,4.2078,4.2059,4.212,4.2124,4.2188,4.2192,4.2289,4.2307,4.2313,4.2312,4.2312,4.2311,4.2332,4.232,4.2313,4.2312,4.2311,4.231,0,4.1415,4.153,4.1633,4.1661,4.1718,4.1766,4.1792,4.1836,4.1878,4.1934,4.1961,4.2027,4.2063,4.2114,4.2118,4.2069,4.2239,4.2172,4.2244,4.2244,4.2277,4.2274,4.249,4.2308,4.2308,4.2308,4.2307,0,4.1291,4.1349,4.1497,4.1543,4.1573,4.1641,4.1705,4.1766,4.1814,4.1821,4.1865,4.1851,4.194,4.1872,4.1993,4.1927,4.1963,4.1978,4.1983,4.1987,4.191,4.2025,4.2234,4.2253,4.1997,4.1994,4.1992,0,4.1093,4.1246,4.1246,4.1387,4.1458,4.1429,4.1505,4.1548,4.1563,4.1625,4.1642,4.1714,4.1666,4.1689,4.1748,4.1767,4.1853,4.1757,4.1843,4.1846,4.1826,4.202,4.2045,4.2188,4.1959,4.1963,4.1965,0,4.0939,4.1007,4.1032,4.1063,4.112,4.118,4.1269,4.1339,4.138,4.1432,4.1503,4.1607,4.1573,4.1612,4.1608,4.1668,4.1795,4.1624,4.1625,4.1651,4.1945,4.1969,4.1993,4.1779,4.1783,4.1786,4.1939,0,4.0742,4.0821,4.0891,4.0961,4.101,4.1099,4.1108,4.1158,4.1148,4.1161,4.1269,4.1307,4.1378,4.141,4.1401,4.1538,4.1515,4.148,4.141,4.1539,4.1589,4.161,4.1335,4.1333,4.1331,4.133,0,0,4.0546,4.0659,4.0655,4.074,4.078,4.0747,4.0841,4.0877,4.0948,4.0976,4.0939,4.1088,4.112,4.125,4.1291,4.1321,4.1345,4.13,4.1479,4.1495,4.1511,4.1565,4.1586,4.1327,4.1326,4.1326,4.1325,0,4.0474,4.051,4.0604,4.064,4.0693,4.0703,4.0726,4.0772,4.0784,4.0891,4.086,4.0926,4.1046,4.1083,4.1117,4.1286,4.1257,4.1308,4.1394,4.1462,4.1481,4.1498,4.1554,4.1575,4.1321,4.1321,4.1322,0,4.0321,4.0356,4.0403,4.0493,4.0528,4.0603,4.0533,4.0616,4.0671,4.0629,4.0734,4.0757,4.0807,4.093,4.0986,4.0953,4.1176,4.1109,4.1119,4.1124,4.1191,4.1213,4.1233,4.0967,4.0966,4.0965,0,0,4.0258,4.0332,4.0368,4.0478,4.0502,4.0517,4.0558,4.0551,4.0598,4.0617,4.0643,4.0689,4.0758,4.0804,4.087,4.1004,4.1012,4.1065,4.1081,4.1095,4.1107,4.1177,4.12,4.096,4.096,4.096,0,0,4.0227,4.0273,4.0255,4.0384,4.043,4.0472,4.0538,4.0516,4.0576,4.0566,4.0559,4.0571,4.0686,4.0709,4.0643,4.0844,4.0777,4.0792,4.0824,4.0845,4.0862,4.0852,4.0575,0,0,0,0,0,4.0157,4.0268,4.025,4.0273,4.0387,4.0482,4.0496,4.0492,4.0444,4.0497,4.0516,4.0483,4.0671,4.0613,4.0636,4.0707,4.0898,4.0909,4.0919,4.0992,4.1014,4.1032,0,0,0,0,0,0,4.0166,4.0194,4.0247,4.0294,4.032,4.0478,4.0394,4.0396,4.0438,4.043,4.0481,4.0485,4.0483,4.0601,4.0622,4.069,4.0568,4.0902,4.0911,4.092,4.0999,4.1017,4.1033,0,0,0,0,0,4.0173,4.0196,4.0379,4.0293,4.0315,4.0336,4.039,4.0391,4.0423,4.0452,4.0455,4.0416,4.0485,4.0502,4.0613,4.0681,4.0554,4.0561,4.0908,4.0915,4.0922,4.1008,0,0,0,0,0,0,4.0178,4.0197,4.0384,4.039,4.025,4.0327,4.0339,4.0387,4.0442,4.0447,4.0387,4.038,4.0488,4.0501,4.0514,4.0678,4.0542,4.055,4.0555,4.0914,4.0919,4.0925,0,0,0,0,0,0,4.0185,4.0203,4.0387,4.0334,4.0334,4.0319,4.033,4.0424,4.0443,4.0374,4.037,4.0383,4.0468,4.05,4.051,4.0658,4.0533,4.0541,4.0546,4.0549,4.0918,4.0923,0,0,0,0,0,0,4.0192,4.0208,4.0332,4.0332,4.0332,4.0406,4.0402,4.0519,4.0398,4.0372,4.0387,4.0382,4.0469,4.0479,4.0508,4.0652,4.0656,4.0534,4.0539,4.0542,4.0545,0,0,0,0,0,0,0,4.0199,4.0096,4.0345,4.0331,4.0331,4.0451,4.0453,4.0455,4.0397,4.0393,4.0388,4.0384,4.0491,4.0499,4.0507,4.0646,0,0,4.0533,4.0537,0,0,0,0,0,0,0,0,4.0089,4.0094,4.0345,4.0346,4.0348,4.0452,4.0453,4.0454,4.0396,4.0393,4.0389,4.0386,4.0493,4.05,4.0506,0,0,0,0,0,0,0,0,0,0,0,0,0,0,0,4.0345,4.0346,0,4.0452,4.0453,4.0454,4.0396,4.0393,4.039,4.0387,4.0495,4.05,4.0506,0,0,0,0,0,0,0,0,0,0,0,0,0,0,0,0,0,0,0,0,0,0,0,0,0,0,0,0,0,0,0,0,0,0,0,0,0,0,0,0,0,0,0,0,0,0,0,0,0,0,0,0,0,0,0,0,0,0,0,0,0,0,0,0,0,0,0,0,0]}],[{"header":{"parameterUnit":"kt","parameterCategory":2,"dx":1,"dy":1,"la1":30.253999710083008,"la2":30.299108505249023,"lo1":-89.0895004272461,"lo2":-89.04439544677734,"nx":28,"ny":28,"refTime":"2022-10-20T21:00:00:Z","depth":0,"parameterNumber":2,"parameterNumberName":"V-component_of_WINDS"},"data":[3.0834,3.0814,3.0805,3.0777,3.0764,3.0742,3.0731,3.0715,3.0701,3.0671,3.0652,3.064,3.062,3.0593,3.057,3.0564,3.0554,3.0552,3.0545,3.0567,3.0569,3.0571,3.0576,3.055,3.055,3.0524,3.0524,3.0523,3.0844,3.0832,3.0816,3.0794,3.0779,3.0775,3.0757,3.0743,3.0724,3.0706,3.0688,3.066,3.0637,3.0618,3.0593,3.058,3.0576,3.0574,3.0574,3.057,3.0593,3.0598,3.0577,3.0577,3.0577,3.0577,3.0577,3.0577,3.086,3.0848,3.0832,3.0814,3.0801,3.0785,3.0772,3.0759,3.0742,3.0718,3.0712,3.0688,3.0668,3.0635,3.0622,3.0601,3.0602,3.0596,3.0594,3.0593,3.0591,3.0624,3.0597,3.0597,3.0597,3.0597,3.0597,0,3.0869,3.0863,3.0848,3.083,3.0816,3.0801,3.0786,3.0778,3.0762,3.0749,3.0727,3.0714,3.0685,3.0663,3.0639,3.0626,3.062,3.062,3.0615,3.0617,3.062,3.0615,3.065,3.0621,3.0621,3.0621,3.0621,3.0621,3.0882,3.0872,3.0851,3.0841,3.0832,3.0816,3.0805,3.0793,3.0781,3.0759,3.0749,3.0728,3.071,3.0676,3.066,3.0639,3.0635,3.0624,3.0632,3.0633,3.0632,3.0632,3.0629,3.0623,3.0623,3.0622,3.0622,0,3.089,3.0879,3.086,3.0842,3.0836,3.0824,3.0807,3.0795,3.0785,3.0766,3.0761,3.0744,3.0723,3.071,3.0683,3.0676,3.065,3.0649,3.0656,3.0654,3.0641,3.0641,3.0606,3.0599,3.0628,3.0628,3.0628,0,3.0897,3.0883,3.0867,3.0857,3.084,3.083,3.0813,3.0803,3.0788,3.0774,3.0767,3.0753,3.0739,3.0721,3.0712,3.0688,3.0684,3.0677,3.0674,3.0677,3.0677,3.0668,3.0669,3.0672,3.0672,3.0672,3.0673,0,3.091,3.0887,3.087,3.0863,3.0843,3.0834,3.0825,3.081,3.0799,3.0783,3.0775,3.0757,3.0747,3.0731,3.0719,3.0725,3.0692,3.0697,3.0684,3.0684,3.0677,3.0677,3.065,3.0673,3.0673,3.0673,3.0673,0,3.0914,3.0901,3.0879,3.0861,3.0856,3.0845,3.0827,3.0815,3.0799,3.0793,3.0781,3.0775,3.0757,3.0762,3.0734,3.0745,3.0734,3.0726,3.0725,3.0721,3.0727,3.0711,3.0689,3.0685,3.0718,3.0718,3.0719,0,3.093,3.0906,3.0899,3.0878,3.0866,3.0859,3.0847,3.0834,3.0825,3.0811,3.0801,3.0786,3.0788,3.0781,3.077,3.0758,3.0745,3.076,3.0735,3.0734,3.0738,3.0717,3.0717,3.0695,3.0723,3.0723,3.0722,0,3.0941,3.092,3.0917,3.0909,3.0893,3.0883,3.0869,3.0853,3.0844,3.0832,3.0818,3.0798,3.0797,3.0787,3.0781,3.077,3.0753,3.0771,3.077,3.0766,3.0726,3.0725,3.0721,3.0751,3.075,3.075,3.0726,0,3.0946,3.0935,3.0928,3.0912,3.0903,3.0891,3.088,3.0871,3.0867,3.0859,3.084,3.0828,3.0811,3.0805,3.0802,3.0781,3.0782,3.0783,3.0787,3.0774,3.0766,3.0763,3.0799,3.0799,3.0799,3.08,0,0,3.0963,3.0947,3.0941,3.0929,3.0921,3.0916,3.0904,3.0895,3.0879,3.0872,3.0874,3.0845,3.0835,3.0813,3.0808,3.0803,3.0797,3.0803,3.0781,3.0779,3.0777,3.0768,3.0765,3.08,3.08,3.08,3.08,0,3.0963,3.0957,3.0946,3.0938,3.0925,3.0918,3.0915,3.0902,3.0896,3.088,3.0875,3.0863,3.0841,3.083,3.0822,3.0805,3.0802,3.0801,3.0795,3.0782,3.078,3.0778,3.0769,3.0766,3.08,3.08,3.08,0,3.0972,3.0963,3.0958,3.0942,3.0934,3.0922,3.0923,3.0912,3.0902,3.0898,3.0882,3.0874,3.086,3.0842,3.0834,3.0836,3.0807,3.0816,3.0815,3.0813,3.08,3.0798,3.0795,3.0824,3.0824,3.0824,0,0,3.0973,3.0964,3.0951,3.0941,3.0936,3.0927,3.092,3.0916,3.0905,3.09,3.0891,3.0879,3.0865,3.0857,3.0844,3.0827,3.0822,3.0819,3.0818,3.0817,3.0815,3.0801,3.0799,3.0824,3.0824,3.0825,0,0,3.0974,3.096,3.0958,3.0946,3.0935,3.0922,3.0916,3.0913,3.0902,3.0902,3.0893,3.089,3.0873,3.0866,3.0874,3.0845,3.0849,3.0847,3.085,3.0849,3.0848,3.0849,3.0873,0,0,0,0,0,3.097,3.0961,3.096,3.0957,3.0938,3.0923,3.092,3.0914,3.0916,3.0911,3.0902,3.09,3.0868,3.0874,3.087,3.0862,3.0831,3.083,3.0828,3.0829,3.0827,3.0826,0,0,0,0,0,0,3.0968,3.0964,3.096,3.0947,3.0943,3.0923,3.0926,3.0924,3.0917,3.0916,3.0902,3.09,3.0893,3.0876,3.0872,3.0865,3.0874,3.083,3.0829,3.0828,3.0828,3.0827,3.0826,0,0,0,0,0,3.0967,3.0964,3.0935,3.0947,3.0943,3.0933,3.0926,3.0924,3.0919,3.0906,3.0904,3.0915,3.0893,3.089,3.0874,3.0866,3.0877,3.0875,3.083,3.0829,3.0828,3.0828,0,0,0,0,0,0,3.0966,3.0962,3.0934,3.0933,3.0951,3.0934,3.0931,3.0925,3.0908,3.0906,3.0918,3.0918,3.0893,3.0891,3.0888,3.0867,3.0879,3.0877,3.0877,3.0829,3.0828,3.0828,0,0,0,0,0,0,3.0963,3.0961,3.0934,3.0938,3.0937,3.0934,3.0932,3.0918,3.0908,3.0921,3.0921,3.0918,3.0897,3.0891,3.0889,3.0867,3.088,3.0879,3.0878,3.0877,3.0829,3.0828,0,0,0,0,0,0,3.0962,3.096,3.0939,3.0938,3.0937,3.092,3.0922,3.0902,3.0913,3.0922,3.0914,3.0915,3.0897,3.0895,3.089,3.0869,3.0867,3.088,3.0879,3.0879,3.0878,0,0,0,0,0,0,0,3.0961,3.098,3.0943,3.0938,3.0937,3.0919,3.0919,3.0918,3.0914,3.0914,3.0914,3.0914,3.0887,3.0886,3.0884,3.087,0,0,3.088,3.088,0,0,0,0,0,0,0,0,3.098,3.098,3.0943,3.0943,3.0943,3.0919,3.0919,3.0918,3.0914,3.0914,3.0914,3.0914,3.0887,3.0886,3.0885,0,0,0,0,0,0,0,0,0,0,0,0,0,0,0,3.0943,3.0943,0,3.0919,3.0919,3.0918,3.0914,3.0914,3.0914,3.0914,3.0886,3.0885,3.0885,0,0,0,0,0,0,0,0,0,0,0,0,0,0,0,0,0,0,0,0,0,0,0,0,0,0,0,0,0,0,0,0,0,0,0,0,0,0,0,0,0,0,0,0,0,0,0,0,0,0,0,0,0,0,0,0,0,0,0,0,0,0,0,0,0,0,0,0,0]}]]]